Weather History for Waseca, MN

Change the Weather History Date:

Sunday, December 8, 2013

  Actual Average Record
Temperature  
Mean Temperature 12 °F -  
Max Temperature 17 °F 26 °F 58 °F (1946)
Min Temperature 6 °F 10 °F -20 °F (1917)
Degree Days  
Heating Degree Days 54    
Moisture  
Dew Point 10 °F    
Average Humidity 83    
Maximum Humidity 93    
Minimum Humidity 72    
Precipitation  
Precipitation 0.00 in - - ()
Sea Level Pressure  
Sea Level Pressure 30.21 in    
Wind  
Wind Speed 8 mph (ESE)    
Max Wind Speed 15 mph    
Max Gust Speed 17 mph    
Visibility 2 miles    
Events Snow    
Averages and records for this station are not official NWS values.
T = Trace of Precipitation, MM = Missing Value Source: NWS Daily Summary

Daily Weather History Graph

Daily Weather History Graph

Search for Another Location

Airport:

Trip Planner

Search our weather history database for the weather conditions in past years. The results will help you decide how hot, cold, wet, or windy it might be!

Date:

Astronomy

Dec. 08, 2013 Rise Set
Actual Time 7:36 AM CST 4:35 PM CST
Civil Twilight 7:03 AM CST 5:08 PM CST
Nautical Twilight 6:27 AM CST 5:45 PM CST
Astronomical Twilight 5:52 AM CST 6:20 PM CST
Moon 11:47 AM CST (12/8) 11:37 PM CST (12/8)
Length of Visible Light 10h 04m
Length of Day
8h 59m
Waxing Crescent, 40% of the Moon is Illuminated
Dec 8
Waxing Crescent
Dec 9
First Quarter
Dec 17
Full
Dec 25
Last Quarter
Jan 1
New

Hourly Weather History & Observations

Time (CST) Temp. Windchill Dew Point Humidity Pressure Visibility Wind Dir Wind Speed Gust Speed Precip Events Conditions
12:14 AM 6.8 °F -3.5 °F -0.4 °F 72% 30.52 in 7.0 mi SE 5.8 mph - N/A   Overcast
12:33 AM 8.6 °F -2.6 °F 1.4 °F 73% 30.51 in 7.0 mi ESE 6.9 mph - N/A Snow Light Snow
12:54 AM 8.6 °F -1.3 °F 1.4 °F 73% 30.50 in 3.0 mi SE 5.8 mph - N/A Snow Light Snow
1:14 AM 8.6 °F -1.3 °F 3.2 °F 79% 30.48 in 2.5 mi ESE 5.8 mph - N/A Snow Light Snow
1:34 AM 8.6 °F -1.3 °F 3.2 °F 79% 30.47 in 3.0 mi ESE 5.8 mph - N/A Snow Light Snow
1:54 AM 8.6 °F -2.6 °F 5.0 °F 85% 30.46 in 2.5 mi ESE 6.9 mph - N/A Snow Light Snow
2:14 AM 8.6 °F -3.7 °F 5.0 °F 85% 30.45 in 2.0 mi East 8.1 mph - N/A Snow Light Snow
2:34 AM 10.4 °F -0.4 °F 5.0 °F 79% 30.44 in 4.0 mi East 6.9 mph - N/A Snow Light Snow
2:54 AM 10.4 °F -0.4 °F 5.0 °F 79% 30.43 in 2.0 mi East 6.9 mph - N/A Snow Light Snow
3:14 AM 10.4 °F -2.4 °F 6.8 °F 85% 30.42 in 2.5 mi ESE 9.2 mph - N/A Snow Light Snow
3:34 AM 12.2 °F 0.7 °F 6.8 °F 79% 30.41 in 2.5 mi ESE 8.1 mph - N/A Snow Light Snow
3:53 AM 12.2 °F -0.2 °F 8.6 °F 85% 30.40 in 2.5 mi East 9.2 mph - N/A Snow Light Snow
4:14 AM 12.2 °F 0.7 °F 8.6 °F 85% 30.38 in 3.0 mi East 8.1 mph - N/A Snow Light Snow
4:34 AM 12.2 °F -1.0 °F 8.6 °F 85% 30.37 in 3.0 mi East 10.4 mph - N/A Snow Light Snow
4:54 AM 12.2 °F -1.0 °F 8.6 °F 85% 30.36 in 2.5 mi East 10.4 mph - N/A Snow Light Snow
5:14 AM 12.2 °F -1.0 °F 8.6 °F 85% 30.36 in 3.0 mi East 10.4 mph - N/A Snow Light Snow
5:34 AM 12.2 °F -1.0 °F 8.6 °F 85% 30.35 in 2.5 mi East 10.4 mph - N/A Snow Light Snow
5:54 AM 12.2 °F -1.0 °F 8.6 °F 85% 30.35 in 2.5 mi ESE 10.4 mph - N/A Snow Light Snow
6:14 AM 12.2 °F -1.8 °F 8.6 °F 85% 30.33 in 2.5 mi ESE 11.5 mph - N/A Snow Light Snow
6:34 AM 12.2 °F -1.0 °F 8.6 °F 85% 30.32 in 3.0 mi ESE 10.4 mph - N/A Snow Light Snow
6:54 AM 12.2 °F -1.0 °F 8.6 °F 85% 30.32 in 3.0 mi ESE 10.4 mph - N/A Snow Light Snow
7:14 AM 12.2 °F -1.0 °F 8.6 °F 85% 30.31 in 3.0 mi ESE 10.4 mph - N/A Snow Light Snow
7:34 AM 12.2 °F -0.2 °F 8.6 °F 85% 30.31 in 2.5 mi ESE 9.2 mph - N/A Snow Light Snow
7:54 AM 12.2 °F -1.0 °F 8.6 °F 85% 30.31 in 1.5 mi ESE 10.4 mph - N/A Snow Light Snow
8:14 AM 14.0 °F 2.0 °F 10.4 °F 86% 30.30 in 1.2 mi ESE 9.2 mph - N/A Snow Light Snow
8:34 AM 14.0 °F 2.0 °F 10.4 °F 86% 30.29 in 1.0 mi ESE 9.2 mph - N/A Snow Light Snow
8:54 AM 14.0 °F -0.2 °F 10.4 °F 86% 30.28 in 1.2 mi East 12.7 mph - N/A Snow Light Snow
9:14 AM 14.0 °F -0.8 °F 10.4 °F 86% 30.27 in 1.5 mi ESE 13.8 mph - N/A Snow Light Snow
9:34 AM 14.0 °F 0.5 °F 10.4 °F 86% 30.26 in 1.5 mi East 11.5 mph - N/A Snow Light Snow
9:53 AM 14.0 °F -0.8 °F 10.4 °F 86% 30.26 in 1.8 mi East 13.8 mph 17.3 mph N/A Snow Light Snow
10:14 AM 14.0 °F -0.2 °F 10.4 °F 86% 30.26 in 1.5 mi ESE 12.7 mph 16.1 mph N/A Snow Light Snow
10:34 AM 14.0 °F -1.4 °F 10.4 °F 86% 30.25 in 2.5 mi ESE 15.0 mph - N/A Snow Light Snow
10:54 AM 14.0 °F -0.2 °F 10.4 °F 86% 30.24 in 1.2 mi ESE 12.7 mph - N/A Snow Light Snow
11:14 AM 14.0 °F 1.2 °F 10.4 °F 86% 30.23 in 1.8 mi ESE 10.4 mph - N/A Snow Light Snow
11:34 AM 14.0 °F -0.2 °F 10.4 °F 86% 30.21 in 1.2 mi SE 12.7 mph 17.3 mph N/A Snow Light Snow
11:54 AM 15.8 °F 2.1 °F 10.4 °F 79% 30.20 in 1.0 mi ESE 12.7 mph - N/A Snow Light Snow
12:14 PM 15.8 °F 2.1 °F 10.4 °F 79% 30.18 in 1.5 mi ESE 12.7 mph - N/A Snow Light Snow
12:34 PM 17.6 °F 4.3 °F 12.2 °F 79% 30.17 in 1.5 mi ESE 12.7 mph - N/A Snow Light Snow
12:54 PM 17.6 °F 4.3 °F 12.2 °F 79% 30.16 in 2.0 mi ESE 12.7 mph - N/A Snow Light Snow
1:15 PM 17.6 °F 6.4 °F 12.2 °F 79% 30.14 in 1.5 mi ESE 9.2 mph - N/A Snow Light Snow
1:34 PM 17.6 °F 6.4 °F 10.4 °F 73% 30.13 in 1.2 mi ESE 9.2 mph - N/A Snow Light Snow
1:54 PM 17.6 °F 5.0 °F 12.2 °F 79% 30.11 in 1.0 mi ESE 11.5 mph - N/A Snow Light Snow
2:14 PM 17.6 °F 5.0 °F 10.4 °F 73% 30.10 in 3.0 mi ESE 11.5 mph - N/A Snow Light Snow
2:34 PM 17.6 °F 7.3 °F 10.4 °F 73% 30.10 in 2.0 mi ESE 8.1 mph - N/A Snow Light Snow
2:54 PM 17.6 °F 6.4 °F 12.2 °F 79% 30.09 in 1.5 mi ESE 9.2 mph - N/A Snow Light Snow
3:14 PM 17.6 °F 7.3 °F 12.2 °F 79% 30.08 in 1.0 mi ESE 8.1 mph - N/A Snow Light Snow
3:34 PM 17.6 °F 8.2 °F 12.2 °F 79% 30.08 in 1.2 mi East 6.9 mph - N/A Snow Light Snow
3:54 PM 17.6 °F 8.2 °F 12.2 °F 79% 30.08 in 1.2 mi East 6.9 mph - N/A Snow Light Snow
4:14 PM 17.6 °F 8.2 °F 12.2 °F 79% 30.08 in 1.2 mi East 6.9 mph - N/A Snow Light Snow
4:34 PM 17.6 °F 9.3 °F 12.2 °F 79% 30.08 in 1.0 mi East 5.8 mph - N/A Snow Light Snow
4:55 PM 17.6 °F 9.3 °F 12.2 °F 79% 30.08 in 1.2 mi East 5.8 mph - N/A Snow Light Snow
5:14 PM 17.6 °F 9.3 °F 12.2 °F 79% 30.07 in 1.8 mi ENE 5.8 mph - N/A Snow Light Snow
5:33 PM 17.6 °F 9.3 °F 12.2 °F 79% 30.07 in 2.0 mi ENE 5.8 mph - N/A Snow Light Snow
5:54 PM 17.6 °F 9.3 °F 12.2 °F 79% 30.07 in 2.5 mi East 5.8 mph - N/A Snow Light Snow
6:14 PM 17.6 °F 12.3 °F 12.2 °F 79% 30.06 in 2.5 mi East 3.5 mph - N/A Snow Light Snow
6:34 PM 17.6 °F 9.3 °F 12.2 °F 79% 30.05 in 2.5 mi East 5.8 mph - N/A Snow Light Snow
6:54 PM 17.6 °F 9.3 °F 12.2 °F 79% 30.05 in 3.0 mi East 5.8 mph - N/A Snow Light Snow
7:14 PM 17.6 °F 12.3 °F 12.2 °F 79% 30.05 in 3.0 mi East 3.5 mph - N/A Snow Light Snow
7:34 PM 17.6 °F - 14.0 °F 86% 30.05 in 3.0 mi Calm Calm - N/A Snow Light Snow
7:54 PM 17.6 °F - 12.2 °F 79% 30.05 in 2.5 mi Calm Calm - N/A Snow Light Snow
8:14 PM 15.8 °F - 12.2 °F 86% 30.05 in 2.5 mi Calm Calm - N/A Snow Light Snow
8:34 PM 15.8 °F - 12.2 °F 86% 30.05 in 2.0 mi Calm Calm - N/A Snow Light Snow
8:54 PM 15.8 °F - 12.2 °F 86% 30.05 in 1.5 mi Calm Calm - N/A Snow Light Snow
9:14 PM 15.8 °F - 12.2 °F 86% 30.04 in 1.8 mi Calm Calm - N/A Snow Light Snow
9:34 PM 14.0 °F - 12.2 °F 93% 30.04 in 0.8 mi Calm Calm - N/A Snow Snow
9:54 PM 14.0 °F - 12.2 °F 93% 30.04 in 2.0 mi Calm Calm - N/A Snow Light Snow
10:14 PM 14.0 °F - 12.2 °F 93% 30.04 in 2.0 mi Calm Calm - N/A Snow Light Snow
10:34 PM 14.0 °F - 12.2 °F 93% 30.04 in 2.0 mi Calm Calm - N/A Snow Light Snow
10:54 PM 14.0 °F 8.2 °F 12.2 °F 93% 30.03 in 2.0 mi West 3.5 mph - N/A Snow Light Snow
11:14 PM 14.0 °F 8.2 °F 12.2 °F 93% 30.03 in 2.0 mi West 3.5 mph - N/A Snow Light Snow
11:34 PM 14.0 °F 6.5 °F 12.2 °F 93% 30.02 in 2.5 mi West 4.6 mph - N/A Snow Light Snow
11:54 PM 14.0 °F 3.9 °F 12.2 °F 93% 30.02 in 4.0 mi West 6.9 mph - N/A Snow Light Snow